Time,TemperatureF,DewpointF,PressureIn,WindDirection,WindDirectionDegrees,WindSpeedMPH,WindSpeedGustMPH,Humidity,HourlyPrecipIn,Conditions,Clouds,dailyrainin,SoftwareType,DateUTC
2013-07-01 00:04:00,67.6,66.2,29.88,ENE,74,0.0,0.0,95,0.17,,,0.00,WUHU216WMR968SP,2013-07-01 04:04:00,
2013-07-01 00:10:00,67.5,66.2,29.85,ENE,74,0.0,0.0,96,0.17,,,0.00,WUHU216WMR968SP,2013-07-01 04:10:00,
2013-07-01 00:15:00,67.5,66.2,29.85,ENE,74,0.0,0.0,96,0.13,,,0.00,WUHU216WMR968SP,2013-07-01 04:15:00,
2013-07-01 00:20:00,67.5,66.2,29.85,ENE,74,0.0,0.0,96,0.09,,,0.00,WUHU216WMR968SP,2013-07-01 04:20:00,
2013-07-01 00:25:00,67.3,68.0,29.85,ENE,74,0.0,0.0,97,0.08,,,0.03,WUHU216WMR968SP,2013-07-01 04:25:00,
2013-07-01 00:30:00,67.3,68.0,29.85,ENE,74,0.0,0.0,97,0.08,,,0.03,WUHU216WMR968SP,2013-07-01 04:30:00,
2013-07-01 00:35:00,67.1,68.0,29.85,ENE,74,0.0,0.0,97,0.03,,,0.03,WUHU216WMR968SP,2013-07-01 04:35:00,
2013-07-01 00:40:00,66.9,66.2,29.85,ENE,60,0.0,0.0,97,0.03,,,0.03,WUHU216WMR968SP,2013-07-01 04:40:00,
2013-07-01 00:45:00,66.9,66.2,29.85,ENE,71,0.0,0.0,97,0.03,,,0.03,WUHU216WMR968SP,2013-07-01 04:45:00,
2013-07-01 00:50:00,66.9,66.2,29.85,ENE,71,0.0,0.0,97,0.03,,,0.03,WUHU216WMR968SP,2013-07-01 04:50:00,
2013-07-01 00:55:00,66.9,66.2,29.85,ENE,73,0.0,0.0,97,0.03,,,0.03,WUHU216WMR968SP,2013-07-01 04:55:00,
2013-07-01 01:00:00,66.9,66.2,29.85,East,97,3.3,4.6,97,0.03,,,0.03,WUHU216WMR968SP,2013-07-01 05:00:00,
2013-07-01 01:05:00,66.7,66.2,29.85,ESE,115,0.0,4.6,97,0.03,,,0.03,WUHU216WMR968SP,2013-07-01 05:05:00,
2013-07-01 01:10:00,66.9,66.2,29.85,East,90,0.0,4.1,97,0.03,,,0.03,WUHU216WMR968SP,2013-07-01 05:10:00,
2013-07-01 01:15:00,66.9,66.2,29.85,ESE,107,0.0,4.1,98,0.03,,,0.03,WUHU216WMR968SP,2013-07-01 05:15:00,
2013-07-01 01:20:00,66.9,66.2,29.85,ESE,107,0.0,0.0,98,0.00,,,0.03,WUHU216WMR968SP,2013-07-01 05:20:00,
2013-07-01 01:25:00,66.9,66.2,29.85,East,96,0.0,0.0,98,0.00,,,0.03,WUHU216WMR968SP,2013-07-01 05:25:00,
2013-07-01 01:30:00,66.9,66.2,29.85,East,96,0.0,0.0,98,0.00,,,0.03,WUHU216WMR968SP,2013-07-01 05:30:00,
2013-07-01 01:35:00,66.7,66.2,29.85,East,96,0.0,0.0,98,0.00,,,0.03,WUHU216WMR968SP,2013-07-01 05:35:00,
2013-07-01 01:40:00,66.7,66.2,29.85,East,96,0.0,0.0,98,0.00,,,0.03,WUHU216WMR968SP,2013-07-01 05:40:00,
2013-07-01 01:45:00,66.7,66.2,29.85,East,96,0.0,0.0,98,0.00,,,0.03,WUHU216WMR968SP,2013-07-01 05:45:00,
2013-07-01 01:50:00,66.7,66.2,29.85,East,96,0.0,0.0,98,0.00,,,0.03,WUHU216WMR968SP,2013-07-01 05:50:00,
2013-07-01 01:55:00,66.7,66.2,29.85,East,96,0.0,0.0,98,0.00,,,0.03,WUHU216WMR968SP,2013-07-01 05:55:00,
2013-07-01 02:00:00,66.6,66.2,29.85,East,96,0.0,0.0,98,0.00,,,0.03,WUHU216WMR968SP,2013-07-01 06:00:00,
2013-07-01 02:05:00,66.6,66.2,29.85,East,96,0.0,0.0,98,0.00,,,0.03,WUHU216WMR968SP,2013-07-01 06:05:00,
2013-07-01 02:11:00,66.6,66.2,29.85,East,96,0.0,0.0,98,0.00,,,0.03,WUHU216WMR968SP,2013-07-01 06:11:00,
2013-07-01 02:16:00,66.6,66.2,29.85,East,96,0.0,0.0,98,0.00,,,0.03,WUHU216WMR968SP,2013-07-01 06:16:00,
2013-07-01 02:21:00,66.6,66.2,29.85,East,96,0.0,0.0,98,0.00,,,0.03,WUHU216WMR968SP,2013-07-01 06:21:00,
2013-07-01 02:26:00,66.6,66.2,29.85,East,96,0.0,0.0,98,0.00,,,0.03,WUHU216WMR968SP,2013-07-01 06:26:00,
2013-07-01 02:31:00,66.7,66.2,29.85,East,96,0.0,0.0,98,0.00,,,0.03,WUHU216WMR968SP,2013-07-01 06:31:00,
2013-07-01 02:36:00,66.7,66.2,29.85,East,96,0.0,0.0,98,0.00,,,0.03,WUHU216WMR968SP,2013-07-01 06:36:00,
2013-07-01 02:41:00,66.7,66.2,29.82,East,96,0.0,0.0,98,0.00,,,0.03,WUHU216WMR968SP,2013-07-01 06:41:00,
2013-07-01 02:46:00,66.7,66.2,29.82,East,96,0.0,0.0,98,0.00,,,0.03,WUHU216WMR968SP,2013-07-01 06:46:00,
2013-07-01 02:51:00,66.6,66.2,29.82,East,96,0.0,0.0,98,0.00,,,0.03,WUHU216WMR968SP,2013-07-01 06:51:00,
2013-07-01 02:56:00,66.6,66.2,29.82,East,96,0.0,0.0,98,0.00,,,0.03,WUHU216WMR968SP,2013-07-01 06:56:00,
2013-07-01 03:01:00,66.6,66.2,29.82,East,96,0.0,0.0,98,0.00,,,0.03,WUHU216WMR968SP,2013-07-01 07:01:00,
2013-07-01 03:06:00,66.4,66.2,29.82,ESE,116,0.0,0.0,98,0.00,,,0.03,WUHU216WMR968SP,2013-07-01 07:06:00,
2013-07-01 03:11:00,66.4,66.2,29.82,SE,144,0.0,0.0,98,0.00,,,0.03,WUHU216WMR968SP,2013-07-01 07:11:00,
2013-07-01 03:16:00,66.2,66.2,29.82,SE,144,0.0,0.0,98,0.00,,,0.03,WUHU216WMR968SP,2013-07-01 07:16:00,
2013-07-01 03:21:00,66.0,66.2,29.82,SE,144,0.0,0.0,98,0.00,,,0.03,WUHU216WMR968SP,2013-07-01 07:21:00,
2013-07-01 03:26:00,66.0,66.2,29.82,SE,144,0.0,0.0,98,0.00,,,0.03,WUHU216WMR968SP,2013-07-01 07:26:00,
2013-07-01 03:31:00,66.0,66.2,29.82,SE,144,0.0,0.0,98,0.00,,,0.03,WUHU216WMR968SP,2013-07-01 07:31:00,
2013-07-01 03:36:00,65.8,66.2,29.82,SE,144,0.0,0.0,98,0.00,,,0.03,WUHU216WMR968SP,2013-07-01 07:36:00,
2013-07-01 03:41:00,65.8,66.2,29.82,SE,144,0.0,0.0,98,0.00,,,0.03,WUHU216WMR968SP,2013-07-01 07:41:00,
2013-07-01 03:46:00,65.7,66.2,29.82,SE,144,0.0,0.0,98,0.00,,,0.03,WUHU216WMR968SP,2013-07-01 07:46:00,
2013-07-01 03:51:00,65.5,66.2,29.82,SE,144,0.0,0.0,98,0.00,,,0.03,WUHU216WMR968SP,2013-07-01 07:51:00,
2013-07-01 03:56:00,65.5,66.2,29.82,SE,144,0.0,0.0,98,0.00,,,0.03,WUHU216WMR968SP,2013-07-01 07:56:00,
2013-07-01 04:01:00,65.3,66.2,29.82,SE,144,0.0,0.0,98,0.00,,,0.03,WUHU216WMR968SP,2013-07-01 08:01:00,
2013-07-01 04:06:00,65.3,66.2,29.82,SE,144,0.0,0.0,98,0.00,,,0.03,WUHU216WMR968SP,2013-07-01 08:06:00,
2013-07-01 04:11:00,65.3,66.2,29.82,SE,138,0.0,0.0,98,0.00,,,0.03,WUHU216WMR968SP,2013-07-01 08:11:00,
2013-07-01 04:16:00,65.1,64.4,29.82,SE,133,0.0,0.0,98,0.00,,,0.03,WUHU216WMR968SP,2013-07-01 08:16:00,
2013-07-01 04:21:00,65.1,64.4,29.82,SE,133,0.0,0.0,98,0.00,,,0.03,WUHU216WMR968SP,2013-07-01 08:21:00,
2013-07-01 04:26:00,65.1,64.4,29.82,SE,133,0.0,0.0,98,0.00,,,0.03,WUHU216WMR968SP,2013-07-01 08:26:00,
2013-07-01 04:32:00,65.1,64.4,29.82,SE,133,0.0,0.0,98,0.00,,,0.03,WUHU216WMR968SP,2013-07-01 08:32:00,
2013-07-01 04:37:00,65.1,64.4,29.82,SE,133,0.0,0.0,98,0.00,,,0.03,WUHU216WMR968SP,2013-07-01 08:37:00,
2013-07-01 04:42:00,64.9,64.4,29.82,SE,132,0.0,0.0,98,0.00,,,0.03,WUHU216WMR968SP,2013-07-01 08:42:00,
2013-07-01 04:47:00,64.9,64.4,29.82,SE,132,0.0,0.0,98,0.00,,,0.03,WUHU216WMR968SP,2013-07-01 08:47:00,
2013-07-01 04:52:00,64.9,64.4,29.85,SE,132,0.0,0.0,98,0.00,,,0.03,WUHU216WMR968SP,2013-07-01 08:52:00,
2013-07-01 04:57:00,64.8,64.4,29.85,SE,132,0.0,0.0,98,0.00,,,0.03,WUHU216WMR968SP,2013-07-01 08:57:00,
2013-07-01 05:02:00,64.8,64.4,29.85,SE,132,0.0,0.0,98,0.00,,,0.03,WUHU216WMR968SP,2013-07-01 09:02:00,
2013-07-01 05:07:00,64.8,64.4,29.85,SE,132,0.0,0.0,98,0.00,,,0.03,WUHU216WMR968SP,2013-07-01 09:07:00,
2013-07-01 05:12:00,64.8,64.4,29.85,SE,132,0.0,0.0,98,0.00,,,0.03,WUHU216WMR968SP,2013-07-01 09:12:00,
2013-07-01 05:17:00,64.6,64.4,29.85,SE,132,0.0,0.0,98,0.00,,,0.03,WUHU216WMR968SP,2013-07-01 09:17:00,
2013-07-01 05:22:00,64.6,64.4,29.82,SE,132,0.0,0.0,98,0.00,,,0.03,WUHU216WMR968SP,2013-07-01 09:22:00,
2013-07-01 05:27:00,64.6,64.4,29.82,SE,132,0.0,0.0,98,0.00,,,0.03,WUHU216WMR968SP,2013-07-01 09:27:00,
2013-07-01 05:32:00,64.4,64.4,29.82,SE,132,0.0,0.0,98,0.00,,,0.03,WUHU216WMR968SP,2013-07-01 09:32:00,
2013-07-01 05:37:00,64.4,64.4,29.85,SE,131,0.0,0.0,98,0.00,,,0.03,WUHU216WMR968SP,2013-07-01 09:37:00,
2013-07-01 05:42:00,64.4,64.4,29.85,SE,130,0.0,0.0,98,0.00,,,0.03,WUHU216WMR968SP,2013-07-01 09:42:00,
2013-07-01 05:47:00,64.4,64.4,29.85,SE,130,0.0,0.0,98,0.00,,,0.03,WUHU216WMR968SP,2013-07-01 09:47:00,
2013-07-01 05:52:00,64.4,64.4,29.85,SE,130,0.0,0.0,98,0.00,,,0.03,WUHU216WMR968SP,2013-07-01 09:52:00,
2013-07-01 05:57:00,64.4,64.4,29.85,SE,130,0.0,0.0,98,0.00,,,0.03,WUHU216WMR968SP,2013-07-01 09:57:00,
2013-07-01 06:02:00,64.4,64.4,29.85,SE,130,0.0,0.0,98,0.00,,,0.03,WUHU216WMR968SP,2013-07-01 10:02:00,
2013-07-01 06:07:00,64.4,64.4,29.85,SE,130,0.0,0.0,98,0.00,,,0.03,WUHU216WMR968SP,2013-07-01 10:07:00,
2013-07-01 06:12:00,64.4,64.4,29.85,SE,130,0.0,0.0,98,0.00,,,0.03,WUHU216WMR968SP,2013-07-01 10:12:00,
2013-07-01 06:17:00,64.4,64.4,29.85,SE,130,0.0,0.0,98,0.00,,,0.03,WUHU216WMR968SP,2013-07-01 10:17:00,
2013-07-01 06:22:00,64.4,64.4,29.85,SE,130,0.0,0.0,98,0.00,,,0.03,WUHU216WMR968SP,2013-07-01 10:22:00,
2013-07-01 06:27:00,64.6,64.4,29.85,SE,130,0.0,0.0,98,0.00,,,0.03,WUHU216WMR968SP,2013-07-01 10:27:00,
2013-07-01 06:32:00,64.6,64.4,29.85,SE,130,0.0,0.0,98,0.00,,,0.03,WUHU216WMR968SP,2013-07-01 10:32:00,
2013-07-01 06:37:00,64.4,64.4,29.85,SE,130,0.0,0.0,98,0.00,,,0.03,WUHU216WMR968SP,2013-07-01 10:37:00,
2013-07-01 06:42:00,64.4,64.4,29.85,SE,130,0.0,0.0,98,0.00,,,0.03,WUHU216WMR968SP,2013-07-01 10:42:00,
2013-07-01 06:47:00,64.4,64.4,29.85,SE,130,0.0,0.0,98,0.00,,,0.03,WUHU216WMR968SP,2013-07-01 10:47:00,
2013-07-01 06:52:00,64.4,64.4,29.85,SE,130,0.0,0.0,98,0.00,,,0.03,WUHU216WMR968SP,2013-07-01 10:52:00,
2013-07-01 06:57:00,64.4,64.4,29.85,SE,130,0.0,0.0,98,0.00,,,0.03,WUHU216WMR968SP,2013-07-01 10:57:00,
2013-07-01 07:02:00,64.6,64.4,29.85,SE,130,0.0,0.0,98,0.00,,,0.03,WUHU216WMR968SP,2013-07-01 11:02:00,
2013-07-01 07:07:00,64.6,64.4,29.85,SE,130,0.0,0.0,98,0.00,,,0.03,WUHU216WMR968SP,2013-07-01 11:07:00,
2013-07-01 07:12:00,64.6,64.4,29.85,SE,130,0.0,0.0,98,0.00,,,0.03,WUHU216WMR968SP,2013-07-01 11:12:00,
2013-07-01 07:17:00,64.8,64.4,29.85,SE,130,0.0,0.0,98,0.00,,,0.03,WUHU216WMR968SP,2013-07-01 11:17:00,
2013-07-01 07:23:00,64.8,64.4,29.88,SE,130,0.0,0.0,98,0.00,,,0.03,WUHU216WMR968SP,2013-07-01 11:23:00,
2013-07-01 07:28:00,64.9,64.4,29.88,SE,130,0.0,0.0,98,0.00,,,0.03,WUHU216WMR968SP,2013-07-01 11:28:00,
2013-07-01 07:33:00,65.1,64.4,29.88,SE,130,0.0,0.0,98,0.00,,,0.03,WUHU216WMR968SP,2013-07-01 11:33:00,
2013-07-01 07:38:00,65.3,66.2,29.88,SE,130,0.0,0.0,98,0.00,,,0.03,WUHU216WMR968SP,2013-07-01 11:38:00,
2013-07-01 07:43:00,65.5,66.2,29.88,SE,130,0.0,0.0,98,0.00,,,0.03,WUHU216WMR968SP,2013-07-01 11:43:00,
2013-07-01 07:48:00,65.7,66.2,29.88,SE,130,0.0,0.0,98,0.00,,,0.03,WUHU216WMR968SP,2013-07-01 11:48:00,
2013-07-01 07:53:00,65.7,66.2,29.88,SE,130,0.0,0.0,98,0.00,,,0.03,WUHU216WMR968SP,2013-07-01 11:53:00,
2013-07-01 07:58:00,65.8,66.2,29.88,SE,130,0.0,0.0,98,0.00,,,0.03,WUHU216WMR968SP,2013-07-01 11:58:00,
2013-07-01 08:03:00,66.0,66.2,29.88,SE,130,0.0,0.0,98,0.00,,,0.03,WUHU216WMR968SP,2013-07-01 12:03:00,
2013-07-01 08:08:00,66.4,66.2,29.88,SE,130,0.0,0.0,98,0.00,,,0.03,WUHU216WMR968SP,2013-07-01 12:08:00,
2013-07-01 08:13:00,66.6,66.2,29.88,SE,130,0.0,0.0,98,0.00,,,0.03,WUHU216WMR968SP,2013-07-01 12:13:00,
2013-07-01 08:18:00,66.9,66.2,29.88,SE,130,0.0,0.0,98,0.00,,,0.03,WUHU216WMR968SP,2013-07-01 12:18:00,
2013-07-01 08:23:00,66.9,66.2,29.88,SE,130,0.0,0.0,98,0.00,,,0.03,WUHU216WMR968SP,2013-07-01 12:23:00,
2013-07-01 08:28:00,66.9,66.2,29.88,SE,130,0.0,0.0,98,0.00,,,0.03,WUHU216WMR968SP,2013-07-01 12:28:00,
2013-07-01 08:33:00,66.9,66.2,29.88,SE,130,0.0,0.0,98,0.00,,,0.03,WUHU216WMR968SP,2013-07-01 12:33:00,
2013-07-01 08:38:00,67.1,68.0,29.88,SE,130,0.0,0.0,98,0.00,,,0.03,WUHU216WMR968SP,2013-07-01 12:38:00,
2013-07-01 08:43:00,67.3,68.0,29.88,SE,130,0.0,0.0,98,0.00,,,0.03,WUHU216WMR968SP,2013-07-01 12:43:00,
2013-07-01 08:48:00,67.5,68.0,29.88,SE,130,0.0,0.0,98,0.00,,,0.03,WUHU216WMR968SP,2013-07-01 12:48:00,
2013-07-01 08:53:00,67.8,68.0,29.88,SE,130,0.0,0.0,98,0.00,,,0.03,WUHU216WMR968SP,2013-07-01 12:53:00,
2013-07-01 08:58:00,68.5,68.0,29.88,SE,130,0.0,0.0,98,0.00,,,0.03,WUHU216WMR968SP,2013-07-01 12:58:00,
2013-07-01 09:03:00,69.1,69.8,29.88,SE,130,0.0,0.0,98,0.00,,,0.03,WUHU216WMR968SP,2013-07-01 13:03:00,
2013-07-01 09:08:00,69.6,69.8,29.91,SE,130,0.0,0.0,98,0.00,,,0.03,WUHU216WMR968SP,2013-07-01 13:08:00,
2013-07-01 09:14:00,70.5,69.8,29.91,ESE,109,0.0,0.0,98,0.00,,,0.03,WUHU216WMR968SP,2013-07-01 13:14:00,
2013-07-01 09:19:00,71.1,71.6,29.91,ESE,109,0.0,0.0,98,0.00,,,0.03,WUHU216WMR968SP,2013-07-01 13:19:00,
2013-07-01 09:24:00,71.4,71.6,29.91,ESE,109,0.0,0.0,98,0.00,,,0.03,WUHU216WMR968SP,2013-07-01 13:24:00,
2013-07-01 09:29:00,72.0,71.6,29.91,ESE,109,0.0,0.0,97,0.00,,,0.03,WUHU216WMR968SP,2013-07-01 13:29:00,
2013-07-01 09:34:00,72.7,71.6,29.91,ESE,109,0.0,0.0,96,0.00,,,0.03,WUHU216WMR968SP,2013-07-01 13:34:00,
2013-07-01 09:39:00,73.8,71.6,29.91,ESE,109,0.0,0.0,94,0.00,,,0.03,WUHU216WMR968SP,2013-07-01 13:39:00,
2013-07-01 09:44:00,74.8,71.6,29.91,ESE,109,0.0,0.0,91,0.00,,,0.03,WUHU216WMR968SP,2013-07-01 13:44:00,
2013-07-01 09:49:00,75.4,71.6,29.91,ESE,120,0.0,0.0,88,0.00,,,0.03,WUHU216WMR968SP,2013-07-01 13:49:00,
2013-07-01 09:54:00,75.9,69.8,29.91,ESE,120,0.0,0.0,86,0.00,,,0.03,WUHU216WMR968SP,2013-07-01 13:54:00,
2013-07-01 09:59:00,76.5,71.6,29.91,ESE,120,0.0,0.0,86,0.00,,,0.03,WUHU216WMR968SP,2013-07-01 13:59:00,
2013-07-01 10:04:00,76.6,71.6,29.91,ESE,120,0.0,0.0,84,0.00,,,0.03,WUHU216WMR968SP,2013-07-01 14:04:00,
2013-07-01 10:09:00,76.1,71.6,29.91,ESE,120,0.0,0.0,83,0.00,,,0.03,WUHU216WMR968SP,2013-07-01 14:09:00,
2013-07-01 10:14:00,76.1,71.6,29.91,ESE,120,0.0,0.0,82,0.00,,,0.03,WUHU216WMR968SP,2013-07-01 14:14:00,
2013-07-01 10:19:00,75.6,68.0,29.91,SE,129,0.0,0.0,80,0.00,,,0.03,WUHU216WMR968SP,2013-07-01 14:19:00,
2013-07-01 10:24:00,75.2,68.0,29.91,South,184,0.0,0.0,80,0.00,,,0.03,WUHU216WMR968SP,2013-07-01 14:24:00,
2013-07-01 10:30:00,75.2,68.0,29.91,SSW,195,0.0,0.0,80,0.00,,,0.03,WUHU216WMR968SP,2013-07-01 14:30:00,
2013-07-01 10:35:00,76.8,71.6,29.91,SSW,196,0.0,0.0,82,0.00,,,0.03,WUHU216WMR968SP,2013-07-01 14:35:00,
2013-07-01 10:40:00,77.5,69.8,29.91,SSW,196,0.0,0.0,80,0.00,,,0.03,WUHU216WMR968SP,2013-07-01 14:40:00,
2013-07-01 10:45:00,77.0,69.8,29.91,SSW,196,0.0,0.0,79,0.00,,,0.03,WUHU216WMR968SP,2013-07-01 14:45:00,
2013-07-01 10:50:00,76.8,69.8,29.91,SSW,196,0.0,0.0,80,0.00,,,0.03,WUHU216WMR968SP,2013-07-01 14:50:00,
2013-07-01 10:55:00,77.0,69.8,29.91,SSW,196,0.0,0.0,80,0.00,,,0.03,WUHU216WMR968SP,2013-07-01 14:55:00,
2013-07-01 11:00:00,77.2,69.8,29.91,SSW,196,0.0,0.0,80,0.00,,,0.03,WUHU216WMR968SP,2013-07-01 15:00:00,
2013-07-01 11:05:00,76.8,71.6,29.91,SSW,196,0.0,0.0,81,0.00,,,0.03,WUHU216WMR968SP,2013-07-01 15:05:00,
2013-07-01 11:10:00,76.5,71.6,29.91,SSW,196,0.0,0.0,81,0.00,,,0.03,WUHU216WMR968SP,2013-07-01 15:10:00,
2013-07-01 11:15:00,77.9,73.4,29.91,West,280,0.0,0.0,81,0.00,,,0.03,WUHU216WMR968SP,2013-07-01 15:15:00,
2013-07-01 11:20:00,78.1,71.6,29.91,SSW,213,0.0,4.6,80,0.00,,,0.03,WUHU216WMR968SP,2013-07-01 15:20:00,
2013-07-01 11:25:00,77.7,69.8,29.91,SSW,213,0.0,4.6,79,0.00,,,0.03,WUHU216WMR968SP,2013-07-01 15:25:00,
2013-07-01 11:30:00,78.6,73.4,29.91,SSW,213,0.0,3.3,81,0.00,,,0.03,WUHU216WMR968SP,2013-07-01 15:30:00,
2013-07-01 11:35:00,78.8,71.6,29.91,SSW,213,0.0,3.3,79,0.00,,,0.03,WUHU216WMR968SP,2013-07-01 15:35:00,
2013-07-01 11:40:00,79.0,71.6,29.91,SSW,213,0.0,0.0,78,0.00,,,0.03,WUHU216WMR968SP,2013-07-01 15:40:00,
2013-07-01 11:45:00,79.0,71.6,29.91,WSW,241,0.0,6.0,76,0.00,,,0.03,WUHU216WMR968SP,2013-07-01 15:45:00,
2013-07-01 11:50:00,78.3,71.6,29.91,WSW,241,0.0,6.0,77,0.00,,,0.03,WUHU216WMR968SP,2013-07-01 15:50:00,
2013-07-01 11:55:00,78.1,71.6,29.91,WSW,241,0.0,0.0,78,0.00,,,0.03,WUHU216WMR968SP,2013-07-01 15:55:00,
2013-07-01 12:00:00,77.9,71.6,29.91,WSW,241,0.0,0.0,78,0.00,,,0.03,WUHU216WMR968SP,2013-07-01 16:00:00,
2013-07-01 12:05:00,77.4,69.8,29.91,WSW,241,0.0,0.0,79,0.00,,,0.03,WUHU216WMR968SP,2013-07-01 16:05:00,
2013-07-01 12:10:00,77.5,69.8,29.91,WSW,241,0.0,0.0,80,0.00,,,0.03,WUHU216WMR968SP,2013-07-01 16:10:00,
2013-07-01 12:15:00,77.7,69.8,29.91,WSW,238,0.0,4.1,79,0.00,,,0.03,WUHU216WMR968SP,2013-07-01 16:15:00,
2013-07-01 12:20:00,77.7,69.8,29.91,WSW,238,0.0,4.1,80,0.00,,,0.03,WUHU216WMR968SP,2013-07-01 16:20:00,
2013-07-01 12:25:00,77.9,71.6,29.91,WSW,238,0.0,0.0,80,0.00,,,0.03,WUHU216WMR968SP,2013-07-01 16:25:00,
2013-07-01 12:30:00,78.3,71.6,29.91,WSW,238,0.0,0.0,79,0.00,,,0.03,WUHU216WMR968SP,2013-07-01 16:30:00,
2013-07-01 12:35:00,78.6,71.6,29.91,West,259,0.0,0.0,79,0.00,,,0.03,WUHU216WMR968SP,2013-07-01 16:35:00,
2013-07-01 12:40:00,78.8,71.6,29.91,West,259,0.0,0.0,78,0.00,,,0.03,WUHU216WMR968SP,2013-07-01 16:40:00,
2013-07-01 12:46:00,78.8,71.6,29.91,West,259,0.0,0.0,78,0.00,,,0.03,WUHU216WMR968SP,2013-07-01 16:46:00,
2013-07-01 12:51:00,78.1,71.6,29.91,WSW,238,0.0,0.0,77,0.00,,,0.03,WUHU216WMR968SP,2013-07-01 16:51:00,
2013-07-01 12:56:00,77.9,71.6,29.88,WSW,238,0.0,0.0,79,0.00,,,0.03,WUHU216WMR968SP,2013-07-01 16:56:00,
2013-07-01 13:01:00,78.6,71.6,29.88,WSW,238,0.0,0.0,78,0.00,,,0.03,WUHU216WMR968SP,2013-07-01 17:01:00,
2013-07-01 13:06:00,79.5,71.6,29.88,NW,308,0.0,0.0,78,0.00,,,0.03,WUHU216WMR968SP,2013-07-01 17:06:00,
2013-07-01 13:11:00,80.8,71.6,29.88,SSW,196,0.0,3.3,74,0.00,,,0.03,WUHU216WMR968SP,2013-07-01 17:11:00,
2013-07-01 13:16:00,81.9,71.6,29.88,East,83,0.0,4.6,70,0.00,,,0.03,WUHU216WMR968SP,2013-07-01 17:16:00,
2013-07-01 13:21:00,81.1,69.8,29.88,SW,228,0.0,4.6,68,0.00,,,0.03,WUHU216WMR968SP,2013-07-01 17:21:00,
2013-07-01 13:26:00,80.4,71.6,29.88,SW,228,0.0,4.6,72,0.00,,,0.03,WUHU216WMR968SP,2013-07-01 17:26:00,
2013-07-01 13:31:00,79.3,69.8,29.88,SW,228,0.0,0.0,73,0.00,,,0.03,WUHU216WMR968SP,2013-07-01 17:31:00,
2013-07-01 13:36:00,79.0,69.8,29.88,SW,228,0.0,0.0,74,0.00,,,0.03,WUHU216WMR968SP,2013-07-01 17:36:00,
2013-07-01 13:41:00,78.4,71.6,29.88,SW,228,0.0,0.0,76,0.00,,,0.03,WUHU216WMR968SP,2013-07-01 17:41:00,
2013-07-01 13:46:00,78.4,71.6,29.88,SW,228,0.0,0.0,77,0.00,,,0.03,WUHU216WMR968SP,2013-07-01 17:46:00,
2013-07-01 13:51:00,78.3,71.6,29.88,SW,228,0.0,0.0,77,0.00,,,0.03,WUHU216WMR968SP,2013-07-01 17:51:00,
2013-07-01 13:56:00,77.7,69.8,29.88,SW,228,0.0,0.0,77,0.00,,,0.03,WUHU216WMR968SP,2013-07-01 17:56:00,
2013-07-01 14:01:00,77.4,69.8,29.88,SW,228,0.0,0.0,78,0.00,,,0.03,WUHU216WMR968SP,2013-07-01 18:01:00,
2013-07-01 14:06:00,76.8,69.8,29.88,SW,228,0.0,0.0,79,0.00,,,0.03,WUHU216WMR968SP,2013-07-01 18:06:00,
2013-07-01 14:11:00,76.5,71.6,29.88,SW,228,0.0,0.0,81,0.00,,,0.03,WUHU216WMR968SP,2013-07-01 18:11:00,
2013-07-01 14:16:00,75.7,69.8,29.88,SW,224,0.0,0.0,81,0.00,,,0.03,WUHU216WMR968SP,2013-07-01 18:16:00,
2013-07-01 14:21:00,75.4,69.8,29.88,SW,223,0.0,0.0,81,0.00,,,0.03,WUHU216WMR968SP,2013-07-01 18:21:00,
2013-07-01 14:26:00,74.8,69.8,29.88,SW,223,0.0,0.0,83,0.00,,,0.03,WUHU216WMR968SP,2013-07-01 18:26:00,
2013-07-01 14:32:00,74.3,69.8,29.88,SSW,201,0.0,0.0,86,0.00,,,0.03,WUHU216WMR968SP,2013-07-01 18:32:00,
2013-07-01 14:36:00,73.9,68.0,29.88,SSW,206,0.0,0.0,86,0.00,,,0.03,WUHU216WMR968SP,2013-07-01 18:36:00,
2013-07-01 14:42:00,73.9,69.8,29.88,SSW,208,0.0,0.0,88,0.00,,,0.03,WUHU216WMR968SP,2013-07-01 18:42:00,
2013-07-01 14:47:00,73.6,69.8,29.88,SSW,208,0.0,0.0,89,0.00,,,0.03,WUHU216WMR968SP,2013-07-01 18:47:00,
2013-07-01 14:52:00,73.4,69.8,29.88,SSW,208,0.0,0.0,89,0.00,,,0.03,WUHU216WMR968SP,2013-07-01 18:52:00,
2013-07-01 14:57:00,73.4,69.8,29.88,SSE,154,0.0,0.0,90,0.09,,,0.12,WUHU216WMR968SP,2013-07-01 18:57:00,
2013-07-01 15:02:00,73.6,69.8,29.88,SSE,154,0.0,0.0,91,0.09,,,0.12,WUHU216WMR968SP,2013-07-01 19:02:00,
2013-07-01 15:07:00,73.8,71.6,29.88,SE,143,0.0,0.0,92,0.09,,,0.12,WUHU216WMR968SP,2013-07-01 19:07:00,
2013-07-01 15:12:00,74.1,69.8,29.88,ESE,118,0.0,0.0,91,0.09,,,0.12,WUHU216WMR968SP,2013-07-01 19:12:00,
2013-07-01 15:17:00,74.5,71.6,29.88,East,96,0.0,0.0,91,0.09,,,0.12,WUHU216WMR968SP,2013-07-01 19:17:00,
2013-07-01 15:22:00,74.8,71.6,29.88,SSE,159,0.0,0.0,90,0.09,,,0.12,WUHU216WMR968SP,2013-07-01 19:22:00,
2013-07-01 15:28:00,75.7,71.6,29.88,South,185,0.0,0.0,89,0.09,,,0.12,WUHU216WMR968SP,2013-07-01 19:28:00,
2013-07-01 15:34:00,75.9,71.6,29.88,SW,222,0.0,4.1,88,0.09,,,0.12,WUHU216WMR968SP,2013-07-01 19:34:00,
2013-07-01 15:39:00,76.1,73.4,29.88,SW,221,0.0,4.1,87,0.09,,,0.12,WUHU216WMR968SP,2013-07-01 19:39:00,
2013-07-01 15:44:00,76.3,71.6,29.88,South,171,0.0,4.1,85,0.09,,,0.12,WUHU216WMR968SP,2013-07-01 19:44:00,
2013-07-01 15:49:00,76.8,71.6,29.88,South,177,0.0,4.1,84,0.09,,,0.12,WUHU216WMR968SP,2013-07-01 19:49:00,
2013-07-01 15:54:00,77.0,71.6,29.88,South,179,0.0,4.6,81,0.00,,,0.12,WUHU216WMR968SP,2013-07-01 19:54:00,
2013-07-01 15:59:00,76.8,71.6,29.88,ESE,122,0.0,4.6,82,0.00,,,0.12,WUHU216WMR968SP,2013-07-01 19:59:00,
2013-07-01 16:04:00,77.2,71.6,29.88,SSE,152,0.0,4.6,82,0.00,,,0.12,WUHU216WMR968SP,2013-07-01 20:04:00,
2013-07-01 16:09:00,77.4,71.6,29.88,SSE,160,0.0,4.1,81,0.00,,,0.12,WUHU216WMR968SP,2013-07-01 20:09:00,
2013-07-01 16:14:00,77.7,69.8,29.88,SSW,193,0.0,4.1,80,0.00,,,0.12,WUHU216WMR968SP,2013-07-01 20:14:00,
2013-07-01 16:20:00,78.3,71.6,29.88,SSE,159,0.0,0.0,78,0.00,,,0.12,WUHU216WMR968SP,2013-07-01 20:20:00,
2013-07-01 16:26:00,78.8,69.8,29.88,NNW,343,0.0,0.0,75,0.00,,,0.12,WUHU216WMR968SP,2013-07-01 20:26:00,
2013-07-01 16:32:00,78.4,69.8,29.88,SW,217,0.0,4.6,72,0.00,,,0.12,WUHU216WMR968SP,2013-07-01 20:32:00,
2013-07-01 16:37:00,78.6,68.0,29.88,SSW,211,0.0,4.6,70,0.00,,,0.12,WUHU216WMR968SP,2013-07-01 20:37:00,
2013-07-01 16:42:00,78.8,68.0,29.88,SSW,211,0.0,0.0,71,0.00,,,0.12,WUHU216WMR968SP,2013-07-01 20:42:00,
2013-07-01 16:48:00,78.4,68.0,29.88,SSW,211,0.0,0.0,70,0.00,,,0.12,WUHU216WMR968SP,2013-07-01 20:48:00,
2013-07-01 16:53:00,78.3,68.0,29.88,SSE,153,0.0,0.0,70,0.00,,,0.12,WUHU216WMR968SP,2013-07-01 20:53:00,
2013-07-01 16:59:00,78.3,69.8,29.88,East,92,0.0,0.0,72,0.00,,,0.12,WUHU216WMR968SP,2013-07-01 20:59:00,
2013-07-01 17:04:00,78.4,69.8,29.88,ENE,77,0.0,6.0,74,0.00,,,0.12,WUHU216WMR968SP,2013-07-01 21:04:00,
2013-07-01 17:10:00,78.4,69.8,29.88,East,81,4.1,6.0,73,0.00,,,0.12,WUHU216WMR968SP,2013-07-01 21:10:00,
2013-07-01 17:15:00,78.8,69.8,29.88,SE,141,5.4,8.1,72,0.00,,,0.12,WUHU216WMR968SP,2013-07-01 21:15:00,
2013-07-01 17:20:00,79.0,69.8,29.88,ESE,120,0.0,8.1,72,0.00,,,0.12,WUHU216WMR968SP,2013-07-01 21:20:00,
2013-07-01 17:26:00,79.0,69.8,29.88,East,81,0.0,8.1,72,0.00,,,0.12,WUHU216WMR968SP,2013-07-01 21:26:00,
2013-07-01 17:31:00,78.6,68.0,29.88,ENE,78,0.0,8.1,71,0.00,,,0.12,WUHU216WMR968SP,2013-07-01 21:31:00,
2013-07-01 17:37:00,78.3,68.0,29.88,East,84,4.6,6.0,70,0.00,,,0.12,WUHU216WMR968SP,2013-07-01 21:37:00,
2013-07-01 17:46:00,78.1,68.0,29.88,East,85,4.1,6.0,70,0.00,,,0.12,WUHU216WMR968SP,2013-07-01 21:46:00,
2013-07-01 17:51:00,78.1,69.8,29.88,ESE,102,0.0,4.6,72,0.00,,,0.12,WUHU216WMR968SP,2013-07-01 21:51:00,
2013-07-01 17:57:00,78.3,68.0,29.88,ESE,102,0.0,4.6,71,0.00,,,0.12,WUHU216WMR968SP,2013-07-01 21:57:00,
2013-07-01 18:02:00,78.3,68.0,29.88,ESE,102,0.0,0.0,71,0.00,,,0.12,WUHU216WMR968SP,2013-07-01 22:02:00,
2013-07-01 18:07:00,78.3,69.8,29.88,East,85,3.3,5.4,72,0.00,,,0.12,WUHU216WMR968SP,2013-07-01 22:07:00,
2013-07-01 18:13:00,78.3,68.0,29.88,East,91,0.0,5.4,69,0.00,,,0.12,WUHU216WMR968SP,2013-07-01 22:13:00,
2013-07-01 18:18:00,77.9,69.8,29.88,East,91,0.0,4.6,72,0.00,,,0.12,WUHU216WMR968SP,2013-07-01 22:18:00,
2013-07-01 18:24:00,77.4,68.0,29.88,East,91,0.0,0.0,73,0.00,,,0.12,WUHU216WMR968SP,2013-07-01 22:24:00,
2013-07-01 18:29:00,77.4,68.0,29.88,East,91,0.0,0.0,74,0.00,,,0.12,WUHU216WMR968SP,2013-07-01 22:29:00,
2013-07-01 18:34:00,77.5,68.0,29.88,ENE,72,0.0,0.0,73,0.00,,,0.12,WUHU216WMR968SP,2013-07-01 22:34:00,
2013-07-01 18:40:00,77.5,68.0,29.85,ENE,72,0.0,0.0,72,0.00,,,0.12,WUHU216WMR968SP,2013-07-01 22:40:00,
2013-07-01 18:45:00,77.7,66.2,29.85,ENE,72,0.0,0.0,71,0.00,,,0.12,WUHU216WMR968SP,2013-07-01 22:45:00,
2013-07-01 18:51:00,77.7,66.2,29.85,ENE,72,0.0,0.0,71,0.00,,,0.12,WUHU216WMR968SP,2013-07-01 22:51:00,
2013-07-01 18:56:00,77.5,68.0,29.88,ENE,72,0.0,0.0,72,0.00,,,0.12,WUHU216WMR968SP,2013-07-01 22:56:00,
2013-07-01 19:01:00,77.2,68.0,29.88,ENE,72,0.0,0.0,73,0.00,,,0.12,WUHU216WMR968SP,2013-07-01 23:01:00,
2013-07-01 19:07:00,77.0,68.0,29.88,ENE,72,0.0,0.0,73,0.00,,,0.12,WUHU216WMR968SP,2013-07-01 23:07:00,
2013-07-01 19:12:00,77.0,68.0,29.88,ENE,72,0.0,0.0,75,0.00,,,0.12,WUHU216WMR968SP,2013-07-01 23:12:00,
2013-07-01 19:18:00,76.6,69.8,29.88,ENE,73,0.0,0.0,76,0.00,,,0.12,WUHU216WMR968SP,2013-07-01 23:18:00,
2013-07-01 19:23:00,76.1,69.8,29.88,ENE,72,0.0,0.0,77,0.00,,,0.12,WUHU216WMR968SP,2013-07-01 23:23:00,
2013-07-01 19:29:00,75.6,68.0,29.88,ENE,72,0.0,0.0,79,0.00,,,0.12,WUHU216WMR968SP,2013-07-01 23:29:00,
2013-07-01 19:34:00,75.4,69.8,29.88,ENE,72,0.0,0.0,81,0.00,,,0.12,WUHU216WMR968SP,2013-07-01 23:34:00,
2013-07-01 19:39:00,75.0,69.8,29.88,ENE,72,0.0,0.0,82,0.00,,,0.12,WUHU216WMR968SP,2013-07-01 23:39:00,
2013-07-01 19:45:00,75.0,69.8,29.88,ENE,72,0.0,0.0,84,0.00,,,0.12,WUHU216WMR968SP,2013-07-01 23:45:00,
2013-07-01 19:50:00,74.5,69.8,29.88,ENE,72,0.0,0.0,86,0.00,,,0.12,WUHU216WMR968SP,2013-07-01 23:50:00,
2013-07-01 19:56:00,74.5,69.8,29.88,ENE,72,0.0,0.0,86,0.00,,,0.12,WUHU216WMR968SP,2013-07-01 23:56:00,
2013-07-01 20:01:00,74.1,69.8,29.88,ENE,73,0.0,0.0,87,0.00,,,0.12,WUHU216WMR968SP,2013-07-02 00:01:00,
2013-07-01 20:07:00,74.1,69.8,29.91,East,101,0.0,0.0,88,0.00,,,0.12,WUHU216WMR968SP,2013-07-02 00:07:00,
2013-07-01 20:12:00,74.1,69.8,29.91,East,98,0.0,4.6,88,0.00,,,0.12,WUHU216WMR968SP,2013-07-02 00:12:00,
2013-07-01 20:17:00,73.9,69.8,29.91,East,95,0.0,4.6,88,0.00,,,0.12,WUHU216WMR968SP,2013-07-02 00:17:00,
2013-07-01 20:23:00,73.9,69.8,29.91,East,95,0.0,4.1,87,0.00,,,0.12,WUHU216WMR968SP,2013-07-02 00:23:00,
2013-07-01 20:28:00,74.3,69.8,29.91,ESE,106,0.0,5.4,86,0.00,,,0.12,WUHU216WMR968SP,2013-07-02 00:28:00,
2013-07-01 20:34:00,74.5,69.8,29.91,ESE,110,0.0,5.4,86,0.00,,,0.12,WUHU216WMR968SP,2013-07-02 00:34:00,
2013-07-01 20:39:00,74.1,69.8,29.91,ESE,110,0.0,4.1,87,0.00,,,0.12,WUHU216WMR968SP,2013-07-02 00:39:00,
2013-07-01 20:44:00,73.9,69.8,29.91,ESE,110,0.0,0.0,87,0.00,,,0.12,WUHU216WMR968SP,2013-07-02 00:44:00,
2013-07-01 20:50:00,73.6,69.8,29.91,ESE,110,0.0,0.0,88,0.00,,,0.12,WUHU216WMR968SP,2013-07-02 00:50:00,
2013-07-01 20:55:00,73.8,69.8,29.91,ESE,105,3.3,4.6,88,0.00,,,0.12,WUHU216WMR968SP,2013-07-02 00:55:00,
2013-07-01 21:01:00,73.2,69.8,29.91,ESE,105,0.0,4.6,90,0.00,,,0.12,WUHU216WMR968SP,2013-07-02 01:01:00,
2013-07-01 21:06:00,72.5,69.8,29.91,ESE,104,0.0,4.6,90,0.00,,,0.12,WUHU216WMR968SP,2013-07-02 01:06:00,
2013-07-01 21:12:00,72.0,68.0,29.91,NE,56,0.0,4.6,91,0.00,,,0.12,WUHU216WMR968SP,2013-07-02 01:12:00,
2013-07-01 21:17:00,71.6,68.0,29.91,ENE,69,0.0,4.1,91,0.00,,,0.12,WUHU216WMR968SP,2013-07-02 01:17:00,
2013-07-01 21:22:00,71.2,69.8,29.91,ENE,69,0.0,0.0,92,0.00,,,0.12,WUHU216WMR968SP,2013-07-02 01:22:00,
2013-07-01 21:28:00,71.1,69.8,29.91,ENE,69,0.0,0.0,93,0.00,,,0.12,WUHU216WMR968SP,2013-07-02 01:28:00,
2013-07-01 21:33:00,70.7,69.8,29.91,SW,231,0.0,0.0,94,0.00,,,0.12,WUHU216WMR968SP,2013-07-02 01:33:00,
2013-07-01 21:39:00,70.3,68.0,29.91,SW,216,0.0,4.6,94,0.00,,,0.12,WUHU216WMR968SP,2013-07-02 01:39:00,
2013-07-01 21:44:00,70.3,68.0,29.91,SW,216,0.0,0.0,95,0.00,,,0.12,WUHU216WMR968SP,2013-07-02 01:44:00,
2013-07-01 21:50:00,70.2,68.0,29.91,SW,216,0.0,0.0,95,0.00,,,0.12,WUHU216WMR968SP,2013-07-02 01:50:00,
2013-07-01 21:55:00,70.0,68.0,29.94,NNW,336,0.0,0.0,96,0.04,,,0.16,WUHU216WMR968SP,2013-07-02 01:55:00,
2013-07-01 22:05:00,69.6,68.0,29.94,NNW,336,0.0,0.0,96,0.09,,,0.20,WUHU216WMR968SP,2013-07-02 02:05:00,
2013-07-01 22:10:00,69.3,69.8,29.94,SW,217,0.0,6.0,97,0.17,,,0.29,WUHU216WMR968SP,2013-07-02 02:10:00,
2013-07-01 22:15:00,69.3,69.8,29.94,WSW,238,0.0,6.0,97,0.26,,,0.38,WUHU216WMR968SP,2013-07-02 02:15:00,
2013-07-01 22:21:00,69.3,69.8,29.94,WNW,292,0.0,4.1,97,0.30,,,0.42,WUHU216WMR968SP,2013-07-02 02:21:00,
2013-07-01 22:26:00,69.4,69.8,29.94,NNW,337,0.0,0.0,98,0.30,,,0.42,WUHU216WMR968SP,2013-07-02 02:26:00,
2013-07-01 22:32:00,69.3,69.8,29.94,NNW,337,0.0,0.0,98,0.30,,,0.42,WUHU216WMR968SP,2013-07-02 02:32:00,
2013-07-01 22:37:00,69.3,69.8,29.94,NNW,337,0.0,0.0,98,0.34,,,0.46,WUHU216WMR968SP,2013-07-02 02:37:00,
2013-07-01 22:42:00,69.3,69.8,29.94,NNW,337,0.0,0.0,98,0.34,,,0.46,WUHU216WMR968SP,2013-07-02 02:42:00,
2013-07-01 22:48:00,69.3,69.8,29.94,North,6,0.0,0.0,98,0.34,,,0.46,WUHU216WMR968SP,2013-07-02 02:48:00,
2013-07-01 22:53:00,69.3,69.8,29.94,North,6,0.0,0.0,98,0.34,,,0.46,WUHU216WMR968SP,2013-07-02 02:53:00,
2013-07-01 22:58:00,69.1,69.8,29.94,North,6,0.0,0.0,98,0.30,,,0.46,WUHU216WMR968SP,2013-07-02 02:58:00,
2013-07-01 23:04:00,69.1,69.8,29.94,North,6,0.0,0.0,98,0.21,,,0.46,WUHU216WMR968SP,2013-07-02 03:04:00,
2013-07-01 23:09:00,68.9,69.8,29.94,North,6,0.0,0.0,98,0.17,,,0.46,WUHU216WMR968SP,2013-07-02 03:09:00,
2013-07-01 23:14:00,68.9,69.8,29.94,North,6,0.0,0.0,98,0.09,,,0.46,WUHU216WMR968SP,2013-07-02 03:14:00,
2013-07-01 23:19:00,68.9,69.8,29.94,North,6,0.0,0.0,98,0.04,,,0.46,WUHU216WMR968SP,2013-07-02 03:19:00,
2013-07-01 23:24:00,68.9,69.8,29.94,North,6,0.0,0.0,98,0.04,,,0.46,WUHU216WMR968SP,2013-07-02 03:24:00,
2013-07-01 23:29:00,68.5,68.0,29.94,North,6,0.0,0.0,98,0.04,,,0.46,WUHU216WMR968SP,2013-07-02 03:29:00,
2013-07-01 23:34:00,68.5,68.0,29.94,North,6,0.0,0.0,98,0.00,,,0.46,WUHU216WMR968SP,2013-07-02 03:34:00,
2013-07-01 23:39:00,68.5,68.0,29.94,North,6,0.0,0.0,98,0.00,,,0.46,WUHU216WMR968SP,2013-07-02 03:39:00,
2013-07-01 23:44:00,68.5,68.0,29.94,North,6,0.0,0.0,98,0.00,,,0.46,WUHU216WMR968SP,2013-07-02 03:44:00,
2013-07-01 23:49:00,68.4,68.0,29.94,North,6,0.0,0.0,98,0.09,,,0.55,WUHU216WMR968SP,2013-07-02 03:49:00,
2013-07-01 23:55:00,68.4,68.0,29.97,ENE,63,0.0,0.0,98,0.17,,,0.63,WUHU216WMR968SP,2013-07-02 03:55:00,